AF5AA Weather Reports


Display with metric or nautical units.
time (UTC)temp
F
wind
direction
speed
MPH
gust
MPH
rain 1hr
in
rain 24hr
in
rain mn
in
humidity
%
barometer
mb
20260510045523 72 112 0.0 0.0 0.00 0.00 0.00 90 1010.2
20260510045019 73 109 0.0 0.0 0.00 0.00 0.00 89 1010.3
20260510044516 73 100 0.0 0.0 0.00 0.00 0.00 89 1010.6
20260510044013 73 104 0.0 0.0 0.00 0.00 0.00 89 1010.7
20260510043508 73 111 0.0 0.0 0.00 0.00 0.00 88 1010.5
20260510043003 73 106 0.0 0.0 0.00 0.00 0.00 89 1010.5
20260510042458 74 110 0.0 0.0 0.00 0.00 0.00 89 1010.5
20260510041953 74 107 0.0 0.0 0.00 0.00 0.00 89 1010.7
20260510041450 74 96 0.0 0.0 0.00 0.00 0.00 90 1010.7
20260510040948 74 99 0.0 0.0 0.00 0.00 0.00 91 1010.6
20260510040444 74 107 0.0 0.0 0.00 0.00 0.00 92 1010.5
20260510035940 75 99 0.0 0.0 0.00 0.00 0.00 91 1010.6
20260510035436 75 107 0.0 0.0 0.00 0.00 0.00 91 1011.0
20260510034931 75 102 0.0 0.0 0.00 0.00 0.00 91 1010.5
20260510034430 75 107 0.0 0.0 0.00 0.00 0.00 91 1010.5
20260510033926 75 105 0.0 0.0 0.00 0.00 0.00 91 1010.4
20260510033422 75 101 0.0 0.0 0.00 0.00 0.00 91 1010.3
20260510032919 75 97 0.0 0.0 0.00 0.00 0.00 91 1010.3
20260510032416 75 97 0.0 0.0 0.00 0.00 0.00 91 1010.3
20260510031911 75 96 0.0 0.0 0.00 0.00 0.00 91 1010.2
20260510031406 76 96 0.0 0.0 0.00 0.00 0.00 90 1010.1
20260510030901 76 96 0.0 0.0 0.00 0.00 0.00 90 1009.9
20260510030358 76 97 0.0 0.0 0.00 0.00 0.00 90 1009.7
20260510025855 76 96 0.0 0.0 0.00 0.00 0.00 89 1009.7
20260510025353 75 97 0.0 0.0 0.00 0.00 0.00 90 1009.7
20260510024850 75 95 0.0 0.0 0.00 0.00 0.00 89 1009.7
20260510024346 75 97 0.0 0.0 0.00 0.00 0.00 89 1009.6
20260510023842 75 99 0.0 0.0 0.00 0.00 0.00 90 1009.6
20260510023339 75 97 0.0 0.0 0.00 0.00 0.00 90 1009.7
20260510022837 75 91 0.0 0.0 0.00 0.00 0.00 90 1009.6
20260510022335 75 92 0.0 0.0 0.00 0.00 0.00 90 1009.5
20260510021834 75 89 1.0 1.0 0.00 0.00 0.00 90 1009.3
20260510021333 76 100 0.0 0.0 0.00 0.00 0.00 90 1009.0
20260510020828 76 105 0.0 0.0 0.00 0.00 0.00 90 1009.0
20260510020323 76 105 0.0 0.0 0.00 0.00 0.00 89 1009.1
20260510015819 76 104 0.0 0.0 0.00 0.00 0.00 89 1009.0
20260510015315 76 104 0.0 0.0 0.00 0.00 0.00 89 1009.0
20260510014810 77 104 0.0 0.0 0.00 0.00 0.00 88 1009.0
20260510014308 77 104 0.0 0.0 0.00 0.00 0.00 88 1008.9
20260510013804 77 104 0.0 0.0 0.00 0.00 0.00 87 1008.7
20260510013259 77 104 0.0 0.0 0.00 0.00 0.00 87 1008.6
20260510012755 77 104 0.0 0.0 0.00 0.00 0.00 87 1008.6
20260510012250 78 104 0.0 0.0 0.00 0.00 0.00 87 1008.6
20260510011749 78 104 0.0 0.0 0.00 0.00 0.00 86 1008.4
20260510011245 78 104 0.0 0.0 0.00 0.00 0.00 86 1008.3
20260510010742 78 104 0.0 0.0 0.00 0.00 0.00 86 1008.3
20260510010239 78 104 0.0 0.0 0.00 0.00 0.00 85 1008.3
20260510005736 79 105 0.0 0.0 0.00 0.00 0.00 84 1008.1
20260510005232 79 105 0.0 0.0 0.00 0.00 0.00 84 1008.1
20260510004730 79 105 0.0 0.0 0.00 0.00 0.00 83 1008.1
20260510004227 80 105 0.0 0.0 0.00 0.00 0.00 83 1008.0
20260510003725 80 105 0.0 0.0 0.00 0.00 0.00 82 1008.1
20260510003221 80 105 0.0 0.0 0.00 0.00 0.00 81 1008.0
20260510002720 80 105 0.0 0.0 0.00 0.00 0.00 80 1007.9
20260510002217 81 105 0.0 0.0 0.00 0.00 0.00 80 1007.9
20260510001714 81 105 0.0 0.0 0.00 0.00 0.00 79 1007.9
20260510001213 81 105 0.0 0.0 0.00 0.00 0.00 79 1007.7
20260510000708 81 105 0.0 0.0 0.00 0.00 0.00 78 1007.7
20260510000206 81 105 0.0 0.0 0.00 0.00 0.00 78 1007.9
20260509235702 81 104 0.0 0.0 0.00 0.00 0.00 76 1007.7
20260509235158 82 104 0.0 0.0 0.00 0.00 0.00 75 1007.6
20260509234654 82 104 0.0 0.0 0.00 0.00 0.00 74 1007.7
20260509234152 82 104 0.0 0.0 0.00 0.00 0.00 74 1007.6
20260509233650 82 106 0.0 0.0 0.00 0.00 0.00 74 1007.5
20260509233147 82 106 0.0 0.0 0.00 0.00 0.00 75 1007.4
20260509232643 83 111 0.0 0.0 0.00 0.00 0.00 76 1007.3
20260509232140 83 101 0.0 0.0 0.00 0.00 0.00 76 1007.3
20260509231637 83 101 0.0 0.0 0.00 0.00 0.00 76 1007.2
20260509231134 84 102 0.0 0.0 0.00 0.00 0.00 75 1007.3
20260509230631 83 103 0.0 0.0 0.00 0.00 0.00 71 1007.3
20260509230128 83 100 0.0 0.0 0.00 0.00 0.00 73 1007.2
20260509225624 84 96 0.0 0.0 0.00 0.00 0.00 74 1007.1
20260509225119 84 100 0.0 0.0 0.00 0.00 0.00 72 1007.1
20260509224615 84 122 1.0 1.0 0.00 0.00 0.00 71 1007.5
20260509224112 84 104 0.0 0.0 0.00 0.00 0.00 73 1007.4
20260509223609 83 99 0.0 0.0 0.00 0.00 0.00 73 1007.3
20260509223107 83 109 0.0 0.0 0.00 0.00 0.00 69 1007.4
20260509222602 83 108 0.0 0.0 0.00 0.00 0.00 74 1007.1
20260509222059 82 100 0.0 0.0 0.00 0.00 0.00 72 1007.3
20260509221554 83 101 0.0 0.0 0.00 0.00 0.00 73 1007.4
20260509221050 83 101 0.0 0.0 0.00 0.00 0.00 72 1007.3
20260509220546 83 101 0.0 0.0 0.00 0.00 0.00 72 1007.3
20260509220043 84 101 0.0 0.0 0.00 0.00 0.00 70 1007.5
20260509215538 85 114 0.0 0.0 0.00 0.00 0.00 67 1007.6
20260509215036 85 80 0.0 0.0 0.00 0.00 0.00 64 1007.5
20260509214533 86 111 0.0 0.0 0.00 0.00 0.00 69 1007.5
20260509214030 86 131 0.0 0.0 0.00 0.00 0.00 66 1007.6
20260509213526 86 113 0.0 0.0 0.00 0.00 0.00 66 1007.7
20260509213023 86 114 0.0 0.0 0.00 0.00 0.00 66 1007.6
20260509212520 86 117 0.0 0.0 0.00 0.00 0.00 64 1007.8
20260509212017 86 118 1.0 1.0 0.00 0.00 0.00 62 1007.7
20260509211512 87 107 0.0 0.0 0.00 0.00 0.00 62 1007.9
20260509211009 86 106 0.0 0.0 0.00 0.00 0.00 63 1007.9
20260509210506 86 118 0.0 0.0 0.00 0.00 0.00 66 1007.9
20260509210002 86 124 0.0 0.0 0.00 0.00 0.00 66 1008.0
20260509205456 85 117 0.0 1.0 0.00 0.00 0.00 68 1008.1
20260509204952 85 100 0.0 0.0 0.00 0.00 0.00 70 1008.0
20260509204449 85 105 0.0 0.0 0.00 0.00 0.00 69 1008.1
20260509203945 84 81 0.0 0.0 0.00 0.00 0.00 70 1008.3
20260509203441 85 66 0.0 1.0 0.00 0.00 0.00 67 1008.2
20260509202939 86 90 0.0 0.0 0.00 0.00 0.00 68 1008.3
20260509202435 86 176 1.0 1.0 0.00 0.00 0.00 67 1008.4
20260509201930 86 123 1.0 1.0 0.00 0.00 0.00 68 1008.4
20260509201426 86 79 0.0 0.0 0.00 0.00 0.00 68 1008.4
20260509200923 85 79 0.0 0.0 0.00 0.00 0.00 71 1008.4
20260509200422 85 103 0.0 0.0 0.00 0.00 0.00 68 1008.6
20260509195919 85 123 1.0 1.0 0.00 0.00 0.00 70 1008.7
20260509195416 84 111 0.0 0.0 0.00 0.00 0.00 71 1008.9
20260509194914 84 58 0.0 1.0 0.00 0.00 0.00 71 1008.6
20260509194411 83 99 0.0 0.0 0.00 0.00 0.00 75 1008.8
20260509193908 82 103 0.0 0.0 0.00 0.00 0.00 78 1008.9
20260509193407 82 108 0.0 0.0 0.00 0.00 0.00 74 1008.7
20260509192904 83 94 0.0 0.0 0.00 0.00 0.00 73 1008.9
20260509192400 84 96 0.0 0.0 0.00 0.00 0.00 72 1008.9
20260509191855 84 118 1.0 2.0 0.00 0.00 0.00 72 1009.1
20260509191351 84 121 0.0 0.0 0.00 0.00 0.00 72 1009.2
20260509190848 84 116 0.0 0.0 0.00 0.00 0.00 70 1009.1
20260509190344 84 109 0.0 0.0 0.00 0.00 0.00 71 1009.1
20260509185842 83 74 0.0 0.0 0.00 0.00 0.00 73 1009.1
20260509185338 82 100 0.0 0.0 0.00 0.00 0.00 76 1009.0
20260509184836 82 106 0.0 0.0 0.00 0.00 0.00 76 1009.4
20260509184333 81 99 0.0 0.0 0.00 0.00 0.00 80 1009.3
20260509183829 82 107 0.0 0.0 0.00 0.00 0.00 76 1009.6
20260509183324 82 98 0.0 0.0 0.00 0.00 0.00 73 1009.3
20260509182821 82 340 1.0 1.0 0.00 0.00 0.00 75 1009.4
20260509182318 82 54 1.0 1.0 0.00 0.00 0.00 76 1009.6
20260509181815 82 108 0.0 0.0 0.00 0.00 0.00 76 1009.7
20260509181312 81 107 0.0 0.0 0.00 0.00 0.00 78 1009.6
20260509180810 81 127 1.0 1.0 0.00 0.00 0.00 77 1009.7
20260509180306 81 130 1.0 1.0 0.00 0.00 0.00 79 1009.6
20260509175802 81 118 0.0 0.0 0.00 0.00 0.00 76 1009.7
20260509175259 81 154 1.0 1.0 0.00 0.00 0.00 78 1009.9
20260509174755 80 112 0.0 0.0 0.00 0.00 0.00 81 1010.0
20260509174250 80 109 0.0 0.0 0.00 0.00 0.00 84 1009.9
20260509173747 80 134 0.0 1.0 0.00 0.00 0.00 83 1009.8
20260509173242 79 65 0.0 1.0 0.00 0.00 0.00 85 1009.8
20260509172738 79 110 0.0 1.0 0.00 0.00 0.00 85 1010.1
20260509172235 78 98 0.0 0.0 0.00 0.00 0.00 86 1010.1
20260509171731 78 103 0.0 0.0 0.00 0.00 0.00 88 1010.2
20260509171227 78 117 0.0 0.0 0.00 0.00 0.00 87 1010.1
20260509170724 78 117 0.0 0.0 0.00 0.00 0.00 88 1010.3
20260509170220 78 114 0.0 0.0 0.00 0.00 0.00 87 1010.2
20260509165718 78 77 0.0 0.0 0.00 0.00 0.00 89 1010.2
20260509165214 77 117 0.0 0.0 0.00 0.00 0.00 88 1010.3
20260509164710 77 116 0.0 0.0 0.00 0.00 0.00 88 1010.2
20260509164206 77 118 0.0 0.0 0.00 0.00 0.00 88 1010.2
20260509163703 77 98 0.0 0.0 0.00 0.00 0.00 88 1010.3
20260509163200 78 97 1.0 1.0 0.00 0.00 0.00 89 1010.3
20260509162657 78 131 1.0 1.0 0.00 0.00 0.00 89 1010.3
20260509162153 77 117 0.0 0.0 0.00 0.00 0.00 91 1010.1
20260509161649 76 68 0.0 1.0 0.00 0.00 0.00 93 1010.3
20260509161144 76 115 0.0 0.0 0.00 0.00 0.00 92 1010.2
20260509160640 76 120 0.0 0.0 0.00 0.00 0.00 92 1010.1
20260509160135 76 146 0.0 1.0 0.00 0.00 0.00 95 1010.0
20260509155632 74 107 0.0 0.0 0.00 0.00 0.00 96 1009.9
20260509155129 74 73 0.0 0.0 0.00 0.00 0.00 99 1010.1
20260509154624 73 88 0.0 0.0 0.00 0.00 0.00 99 1010.2
20260509154121 73 104 0.0 0.0 0.00 0.00 0.00 99 1010.2
20260509153619 73 112 0.0 0.0 0.00 0.00 0.00 99 1010.3
20260509153115 73 114 0.0 0.0 0.00 0.00 0.00 99 1010.0
20260509152611 72 114 0.0 0.0 0.00 0.00 0.00 99 1010.3
20260509152109 72 118 0.0 0.0 0.00 0.00 0.00 99 1010.3
20260509151605 72 107 0.0 0.0 0.00 0.00 0.00 99 1010.2
20260509151103 72 106 0.0 0.0 0.00 0.00 0.00 99 1010.4
20260509150600 72 102 0.0 0.0 0.00 0.00 0.00 99 1010.3
20260509150058 72 102 0.0 0.0 0.00 0.00 0.00 99 1010.2
20260509145554 72 102 0.0 0.0 0.00 0.00 0.00 99 1010.2
20260509145049 71 104 0.0 0.0 0.00 0.00 0.00 99 1010.2
20260509144546 71 109 0.0 0.0 0.00 0.00 0.00 99 1010.3
20260509144043 71 109 0.0 0.0 0.00 0.00 0.00 99 1010.2
20260509143540 71 109 0.0 0.0 0.00 0.00 0.00 99 1010.4
20260509143038 71 106 0.0 0.0 0.00 0.00 0.00 99 1010.4
20260509142533 71 105 0.0 0.0 0.00 0.00 0.00 99 1010.4
20260509142029 71 105 0.0 0.0 0.00 0.00 0.00 99 1010.7
20260509141526 71 108 0.0 0.0 0.00 0.00 0.00 99 1010.4
20260509141023 71 108 0.0 0.0 0.00 0.00 0.00 99 1010.3
20260509140519 71 108 0.0 0.0 0.00 0.00 0.00 99 1010.5
20260509140018 71 108 0.0 0.0 0.00 0.00 0.00 99 1010.3
20260509135514 71 112 0.0 0.0 0.00 0.00 0.00 99 1010.2
20260509135012 71 111 0.0 0.0 0.00 0.00 0.00 99 1010.3
20260509134509 71 111 0.0 0.0 0.00 0.00 0.00 99 1010.2
20260509134007 71 111 0.0 0.0 0.00 0.00 0.00 99 1010.3
20260509133503 71 111 0.0 0.0 0.00 0.00 0.00 99 1010.3
20260509133001 71 117 0.0 0.0 0.00 0.00 0.00 99 1010.2
20260509132459 71 113 0.0 0.0 0.00 0.00 0.00 99 1010.1
20260509131956 71 101 0.0 0.0 0.00 0.00 0.00 99 1010.0
20260509131453 71 104 0.0 0.0 0.00 0.00 0.00 99 1010.1
20260509130949 71 100 0.0 0.0 0.00 0.00 0.00 99 1010.2
20260509130445 70 100 0.0 0.0 0.00 0.00 0.00 99 1010.2
20260509125942 70 99 0.0 0.0 0.00 0.00 0.00 99 1010.3
20260509125439 70 99 0.0 0.0 0.00 0.00 0.00 99 1010.1
20260509124935 70 109 0.0 0.0 0.00 0.00 0.00 99 1010.2
20260509124432 70 108 0.0 0.0 0.00 0.00 0.00 99 1010.0
20260509123929 70 114 0.0 0.0 0.00 0.00 0.00 99 1010.2
20260509123426 70 116 0.0 0.0 0.00 0.00 0.00 99 1010.0
20260509122922 70 118 0.0 0.0 0.00 0.00 0.00 99 1009.8
20260509122419 70 115 0.0 0.0 0.00 0.00 0.00 99 1009.7
20260509121916 69 108 0.0 0.0 0.00 0.00 0.00 99 1009.6
20260509121413 69 111 0.0 0.0 0.00 0.00 0.00 99 1009.8
20260509120911 70 113 0.0 0.0 0.00 0.00 0.00 99 1009.8
20260509120408 69 118 0.0 0.0 0.00 0.00 0.00 99 1009.8
20260509115906 70 117 0.0 0.0 0.00 0.00 0.00 99 1009.7
20260509115403 70 101 0.0 0.0 0.00 0.00 0.00 99 1009.6
20260509114901 69 96 0.0 0.0 0.00 0.00 0.00 99 1009.2
20260509114359 69 101 0.0 0.0 0.00 0.00 0.00 99 1009.4
20260509113858 69 105 0.0 0.0 0.00 0.00 0.00 99 1009.5
20260509113356 69 107 0.0 0.0 0.00 0.00 0.00 99 1009.4
20260509112852 69 66 0.0 0.0 0.00 0.00 0.00 99 1009.1
20260509112349 69 108 0.0 0.0 0.00 0.00 0.00 99 1009.1
20260509111846 69 115 0.0 0.0 0.00 0.00 0.00 99 1008.8
20260509111343 69 111 0.0 0.0 0.00 0.00 0.00 99 1008.8
20260509110841 69 140 1.0 1.0 0.00 0.00 0.00 99 1008.8
20260509110337 69 105 1.0 1.0 0.00 0.00 0.00 99 1008.9
20260509105835 69 123 0.0 0.0 0.00 0.00 0.00 99 1008.8
20260509105333 69 135 1.0 1.0 0.00 0.00 0.00 99 1009.1
20260509104829 69 113 0.0 0.0 0.00 0.00 0.00 99 1009.2
20260509104326 69 112 0.0 0.0 0.00 0.00 0.00 99 1009.1
20260509103824 69 114 0.0 0.0 0.00 0.00 0.00 99 1009.0
20260509103321 69 115 0.0 0.0 0.00 0.00 0.00 99 1009.0
20260509102820 69 115 0.0 0.0 0.00 0.00 0.00 99 1009.3
20260509102317 69 114 0.0 0.0 0.00 0.00 0.00 99 1009.0
20260509101812 69 112 0.0 0.0 0.00 0.00 0.00 99 1009.1
20260509101309 69 114 0.0 0.0 0.00 0.00 0.00 99 1009.2
20260509100807 69 112 0.0 0.0 0.00 0.00 0.00 99 1009.2
20260509100303 69 112 0.0 0.0 0.00 0.00 0.00 99 1009.3
20260509095800 69 112 0.0 0.0 0.00 0.00 0.00 99 1009.5
20260509095257 69 112 0.0 0.0 0.00 0.00 0.00 99 1009.3
20260509094754 69 112 0.0 0.0 0.00 0.00 0.00 99 1009.6
20260509094251 69 112 0.0 0.0 0.00 0.00 0.00 99 1009.4
20260509093749 69 110 0.0 0.0 0.00 0.00 0.00 99 1009.4
20260509093246 69 109 0.0 0.0 0.00 0.00 0.00 99 1009.3
20260509092744 69 112 0.0 0.0 0.00 0.00 0.00 99 1009.4
20260509092242 69 114 0.0 0.0 0.00 0.00 0.00 99 1009.3
20260509091740 69 108 0.0 0.0 0.00 0.00 0.00 99 1009.4
20260509091236 69 103 0.0 0.0 0.00 0.00 0.00 99 1009.3
20260509090733 69 114 0.0 0.0 0.00 0.00 0.00 99 1009.3
20260509090231 69 113 0.0 0.0 0.00 0.00 0.00 99 1009.2
20260509085728 69 116 0.0 0.0 0.00 0.00 0.00 99 1009.0
20260509085225 69 92 0.0 0.0 0.00 0.00 0.00 99 1009.3
20260509084722 69 116 0.0 0.0 0.00 0.00 0.00 99 1009.2
20260509084218 69 124 0.0 0.0 0.00 0.00 0.00 99 1009.4
20260509083717 69 107 0.0 0.0 0.00 0.00 0.00 99 1009.6
20260509083213 69 114 0.0 0.0 0.00 0.00 0.00 99 1009.6
20260509082710 69 114 0.0 0.0 0.00 0.00 0.00 99 1009.7
20260509082206 69 115 0.0 0.0 0.00 0.00 0.00 99 1010.0
20260509081703 69 112 0.0 0.0 0.00 0.00 0.00 99 1010.2
20260509081200 69 112 0.0 0.0 0.00 0.00 0.00 99 1009.9
20260509080659 69 112 0.0 0.0 0.00 0.00 0.00 99 1010.4
20260509080156 69 103 0.0 0.0 0.00 0.00 0.00 99 1010.2
20260509075654 69 100 0.0 0.0 0.00 0.00 0.00 99 1010.4
20260509075151 69 98 0.0 0.0 0.00 0.00 0.00 99 1010.3
20260509074648 69 109 0.0 0.0 0.00 0.00 0.00 99 1010.4
20260509074144 69 98 0.0 0.0 0.00 0.00 0.00 99 1010.4
20260509073642 69 95 0.0 0.0 0.00 0.00 0.00 99 1010.0
20260509073137 69 104 0.0 0.0 0.00 0.00 0.00 99 1010.2
20260509072635 69 68 0.0 1.0 0.00 0.00 0.00 99 1010.2
20260509072131 69 104 0.0 0.0 0.00 0.00 0.00 99 1009.6
20260509071628 69 93 0.0 0.0 0.00 0.00 0.00 99 1009.5
20260509071125 69 81 0.0 1.0 0.00 0.00 0.00 99 1009.7
20260509070623 69 102 0.0 0.0 0.00 0.00 0.00 99 1009.5
20260509070119 69 113 0.0 0.0 0.00 0.00 0.00 99 1009.7
20260509065614 69 104 0.0 0.0 0.00 0.00 0.00 99 1009.8
20260509065110 69 101 0.0 0.0 0.00 0.00 0.00 99 1009.8
20260509064608 69 111 0.0 0.0 0.00 0.00 0.00 99 1009.6
20260509064106 69 128 0.0 1.0 0.00 0.00 0.00 99 1009.5
20260509063602 69 148 1.0 2.0 0.00 0.00 0.00 98 1009.6
20260509063059 69 122 0.0 0.0 0.00 0.00 0.00 98 1010.4
20260509062556 69 108 0.0 0.0 0.00 0.00 0.00 97 1010.4
20260509062054 70 108 0.0 0.0 0.00 0.00 0.00 97 1010.8
20260509061550 70 99 0.0 0.0 0.00 0.00 0.00 96 1010.7
20260509061047 70 99 0.0 0.0 0.00 0.00 0.00 96 1010.6
20260509060545 70 99 0.0 0.0 0.00 0.00 0.00 95 1010.8
20260509060040 70 106 0.0 0.0 0.00 0.00 0.00 94 1010.8
20260509055536 70 106 0.0 0.0 0.00 0.00 0.00 94 1010.9
20260509055032 70 99 0.0 0.0 0.00 0.00 0.00 94 1011.0
20260509054529 70 98 0.0 0.0 0.00 0.00 0.00 94 1011.1
20260509054027 70 98 0.0 0.0 0.00 0.00 0.00 94 1011.1
20260509053526 70 98 0.0 0.0 0.00 0.00 0.00 94 1010.9
20260509053022 70 98 0.0 0.0 0.00 0.00 0.00 94 1011.2
20260509052520 70 98 0.0 0.0 0.00 0.00 0.00 93 1010.9
20260509052018 70 98 0.0 0.0 0.00 0.00 0.00 93 1010.8
20260509051516 70 96 0.0 0.0 0.00 0.00 0.00 93 1010.8
20260509051012 70 94 0.0 0.0 0.00 0.00 0.00 93 1010.9
20260509050509 70 97 0.0 0.0 0.00 0.00 0.00 93 1010.8
20260509050006 70 97 0.0 0.0 0.00 0.00 0.00 93 1010.7